Location: Ammerl�gen
(47.2167°N, 9.6000°E)
Time: 04:00:11
(UTC+00:00)

AO-73 - Visible Passes

Search period start: 06 December 2021 00:00
Search period end: 16 December 2021 00:00
Orbit: 581 x 660 km, 97.6° (Epoch: 05 December)

Date Brightness Start Highest point End Pass type
(mag) Time Alt. Az. Time Alt. Az. Time Alt. Az.
06 Dec ? 03:51:49 10° NNE 03:52:34 15° NNE 03:52:34 15° NNE visible
06 Dec ? 05:29:18 10° NNW 05:29:44 11° NNW 05:29:44 11° NNW visible
06 Dec ? 16:28:42 10° WSW 16:30:23 12° W 16:32:04 10° WNW visible
07 Dec ? 04:09:24 10° N 04:10:08 15° N 04:10:08 15° N visible
08 Dec ? 04:27:02 10° N 04:27:42 14° N 04:27:42 14° N visible
09 Dec ? 04:44:47 10° N 04:45:17 13° N 04:45:17 13° N visible
10 Dec ? 05:02:38 10° N 05:02:52 11° NNW 05:02:52 11° NNW visible
10 Dec ? 16:00:46 10° SW 16:04:08 21° W 16:07:34 10° NW visible
11 Dec ? 16:19:25 10° WSW 16:21:53 15° W 16:24:23 10° NW visible
